Wind_Speed
14 12 11 9 7 6 4 3 2 3 4 5 4 5 6 7 9 10 10 10 10 9 10 9 8 8 8 8 9 8 8 8 9 9 8 8 8 7 7 6 5 4 4 2
15 13 12 11 10 8 5 4 1 2 2 4 5 6 5 5 6 7 8 8 8 8 8 8 7 8 7 8 7 7 7 7 8 8 8 8 8 8 7 6 5 5 4 3
15 14 13 12 11 10 8 5 2 1 3 5 6 6 6 5 7 7 7 7 7 8 8 7 7 7 7 6 6 6 6 6 6 7 7 7 7 7 6 6 5 5 4 4
18 17 16 13 11 11 8 5 4 5 6 7 8 8 6 6 6 6 6 7 7 8 7 7 6 6 6 6 5 5 4 5 5 5 6 6 6 6 6 5 4 5 5 4
18 18 16 13 10 11 9 7 8 8 9 10 10 9 8 6 5 5 5 5 6 6 6 6 5 5 5 5 5 4 4 4 5 5 6 6 6 6 6 5 4 5 5 4
19 18 17 15 13 12 11 10 11 12 12 12 11 11 9 6 5 6 5 4 4 5 5 5 4 5 5 5 4 3 3 4 5 5 5 6 6 6 6 6 6 5 5 6
20 19 18 17 15 14 15 14 14 15 14 13 11 11 10 8 7 8 6 5 3 4 4 4 4 5 5 4 4 4 3 3 4 5 5 6 6 6 6 6 6 6 6 6
20 20 19 18 16 15 15 15 15 16 15 13 11 12 11 10 10 8 7 6 4 4 4 3 5 4 4 4 4 4 4 4 4 5 6 6 6 6 7 7 6 7 7 7
21 19 19 19 17 16 16 15 14 16 16 16 14 13 13 12 11 10 9 6 4 5 4 5 6 5 4 4 4 5 5 4 5 5 6 6 7 7 7 8 7 8 8 8
21 21 20 19 18 18 17 17 17 18 19 19 17 15 12 12 10 11 10 8 6 7 7 6 7 6 6 5 5 5 5 5 6 6 7 7 7 8 8 9 9 9 10 10
22 23 22 21 21 19 18 19 19 20 20 20 18 15 13 12 10 10 8 8 9 8 9 8 8 7 7 7 7 6 6 6 7 8 8 9 9 9 9 10 10 11 11 12
21 23 24 24 23 22 21 19 20 21 21 20 19 17 15 13 12 11 9 8 9 10 11 10 10 9 8 9 8 8 8 8 8 9 10 11 11 11 11 12 12 12 13 13
23 24 24 25 26 25 24 22 21 22 22 22 22 19 18 16 16 15 13 11 11 11 11 11 11 11 11 10 10 9 8 9 10 11 11 12 12 13 12 13 14 14 14 14
25 26 26 26 26 26 25 24 24 24 25 24 24 22 20 19 18 17 15 14 13 13 12 12 13 13 13 13 12 11 11 11 11 11 12 12 14 14 14 14 14 14 15 15
28 28 27 26 26 27 26 25 25 26 25 25 24 23 22 22 19 18 17 16 16 15 14 14 15 16 15 15 15 13 13 13 13 13 14 14 15 14 15 15 16 16 16 16
31 30 29 28 28 28 27 26 27 27 25 25 24 24 23 23 21 20 19 20 20 19 18 18 18 16 16 16 15 14 14 15 15 15 15 17 17 17 16 16 18 18 17 18
34 32 32 31 30 29 29 28 28 27 27 26 25 25 25 25 23 22 21 22 22 23 23 21 19 19 18 18 17 17 17 16 17 16 16 17 18 19 18 19 19 19 18 18
35 35 34 34 33 34 30 29 29 29 28 27 27 27 26 26 26 25 25 24 24 24 24 22 21 21 20 19 19 19 18 17 17 17 17 18 19 20 21 20 20 21 21 21
34 35 35 35 35 34 32 31 31 31 30 30 30 29 29 28 28 27 26 26 25 25 24 23 23 22 21 20 20 19 19 18 19 19 19 20 21 22 22 22 22 23 22 22
34 35 36 36 36 35 33 31 32 32 33 32 32 30 30 30 30 29 28 27 26 25 25 24 24 23 21 20 20 20 20 20 21 21 22 22 23 23 23 23 24 24 24 24
34 35 36 37 37 37 35 33 32 33 33 31 32 31 31 31 30 30 29 27 26 26 26 25 25 23 22 21 22 22 22 22 23 23 24 24 24 24 24 24 25 25 25 25
33 35 36 36 38 37 35 35 33 33 32 33 32 32 31 31 30 30 29 28 27 26 26 26 26 25 24 24 24 25 25 24 25 24 25 25 25 25 25 25 25 25 26 26
34 35 36 38 38 36 36 36 35 34 33 32 33 33 31 30 29 29 29 28 27 27 27 27 27 26 25 25 26 27 27 26 26 26 26 26 26 27 27 26 26 26 26 26
35 35 35 36 36 34 34 34 35 35 33 31 30 29 30 30 28 27 28 28 28 28 29 29 29 28 27 26 26 27 28 27 27 27 27 27 27 27 28 28 28 28 28 28
34 34 35 35 34 33 33 33 33 33 33 32 30 29 28 27 27 27 28 29 30 30 30 30 30 29 29 29 29 29 29 29 29 29 28 29 28 28 28 29 30 30 29 29
35 35 34 34 34 33 33 33 32 32 32 32 30 29 28 27 27 28 28 29 30 30 30 31 30 30 29 29 30 30 30 30 30 29 29 29 29 29 29 30 30 30 30 31
Wind_Direction
199 201 191 185 183 174 178 183 102 49 33 7 7 10 14 28 31 30 26 32 40 40 43 45 45 46 55 54 56 63 60 58 56 54 52 52 50 46 46 48 49 48 44 44
201 199 195 195 194 192 204 207 212 34 25 345 344 357 15 25 30 29 24 24 33 35 37 41 42 38 47 56 59 62 60 56 51 49 47 50 48 43 41 44 47 43 36 34
201 198 199 201 197 200 209 214 208 289 305 315 323 346 2 7 17 14 18 17 24 24 29 39 37 30 33 44 51 56 57 51 45 42 41 42 40 37 36 40 46 44 36 30
204 204 203 203 207 215 221 219 237 250 267 288 299 317 340 354 2 3 6 13 15 16 25 37 32 24 22 27 35 44 48 39 36 33 32 33 34 31 27 26 25 23 24 23
207 208 208 207 210 219 224 224 237 243 252 271 281 291 306 320 338 344 351 3 8 8 14 13 16 12 11 15 20 23 26 24 25 22 17 20 20 15 12 11 6 4 4 360
210 211 215 211 212 219 225 228 232 240 252 261 266 278 288 294 313 317 322 333 352 353 350 349 350 0 2 3 4 2 6 12 6 7 6 8 6 3 3 2 360 354 352 346
212 211 214 214 218 217 221 226 231 237 246 254 255 266 276 284 298 306 308 312 330 328 328 330 333 349 354 349 346 346 346 352 355 355 355 354 353 350 347 345 345 344 340 338
217 214 214 216 222 223 221 229 237 242 248 250 250 257 267 272 286 291 298 308 311 317 317 311 311 324 338 331 324 324 329 333 332 336 337 339 340 338 335 333 334 338 336 331
219 216 214 218 220 220 221 229 238 245 251 250 252 256 262 268 276 278 289 293 295 309 314 310 305 303 310 323 314 313 316 313 313 318 320 321 324 324 324 324 326 327 326 324
223 220 214 217 222 223 227 229 235 243 247 249 249 253 259 266 267 277 292 298 293 294 303 308 300 297 291 300 307 304 304 302 303 304 309 313 313 311 312 316 317 317 317 316
226 225 218 218 223 225 229 232 236 243 246 249 254 256 265 271 274 279 286 290 294 294 295 296 300 295 293 291 292 296 295 295 292 293 298 304 306 303 303 307 309 308 308 308
226 227 222 221 225 228 230 234 237 241 244 249 253 259 264 270 272 272 275 280 279 282 287 289 289 291 285 286 286 294 294 291 291 294 303 302 299 300 300 300 300 302 301 302
228 229 226 223 225 228 230 233 237 243 245 248 253 257 263 266 269 270 276 277 272 276 283 285 281 280 279 281 284 290 297 297 295 295 300 302 297 297 298 298 296 297 299 299
232 232 230 228 227 231 233 234 238 242 244 246 250 254 259 259 266 267 269 271 271 275 278 282 284 281 277 278 280 283 289 294 291 292 298 300 298 298 296 297 297 297 298 296
232 235 233 231 230 233 236 236 237 239 243 248 249 253 257 258 262 263 265 269 272 273 274 281 283 284 279 279 280 282 284 288 292 291 294 301 306 302 299 299 299 297 296 296
233 236 235 236 236 235 236 237 238 240 241 244 247 252 257 258 260 263 268 269 270 274 276 280 281 283 282 281 280 282 285 286 290 292 293 299 304 305 304 302 299 298 298 297
236 238 238 238 237 236 237 235 237 238 242 244 248 250 254 257 261 266 269 271 272 275 276 277 280 282 281 281 279 280 281 285 287 289 290 294 299 300 298 299 297 296 297 298
238 240 240 239 237 237 235 236 238 239 240 245 249 249 253 259 262 266 269 272 273 274 274 276 279 281 281 280 276 276 277 282 282 283 286 290 294 294 296 297 296 293 294 296
237 239 240 240 240 239 237 238 238 238 239 242 246 250 254 258 261 264 268 271 272 271 271 275 277 275 275 275 274 275 274 277 281 281 283 285 289 292 292 293 292 291 292 294
237 238 240 240 240 240 238 238 239 241 243 245 248 251 253 257 261 264 268 269 268 270 273 273 274 271 272 274 275 277 277 277 279 281 282 283 286 288 289 289 289 289 290 291
236 238 239 241 242 241 239 240 242 243 245 247 250 252 253 257 262 264 266 268 268 270 271 273 273 270 269 274 275 277 278 278 278 279 281 281 282 286 286 288 289 287 286 287
236 238 240 243 242 241 241 242 242 244 247 248 249 252 254 257 259 261 265 268 269 269 270 271 273 272 270 271 274 275 276 277 278 278 280 281 284 287 288 287 287 287 285 285
236 239 242 244 244 243 244 244 244 245 249 249 250 251 254 257 259 261 264 264 265 266 270 271 271 270 269 271 273 273 274 276 276 277 279 279 282 285 285 284 285 285 286 287
235 237 241 243 244 244 245 246 247 248 251 253 253 253 252 255 257 259 261 263 265 266 268 269 271 270 269 270 272 273 274 274 274 275 277 279 280 284 284 282 286 288 288 290
234 236 238 241 243 244 245 247 250 254 256 257 253 254 255 257 258 260 261 263 265 266 268 270 271 269 269 270 272 273 273 273 274 275 276 278 280 283 284 285 288 289 289 290
233 236 238 240 243 244 246 247 249 252 254 256 255 254 253 256 258 259 262 264 265 266 267 268 269 269 271 272 272 273 273 273 273 274 277 279 280 282 284 286 286 287 288 288
Height
5910 5913 5914 5915 5916 5918 5918 5919 5919 5920 5920 5919 5920 5919 5918 5917 5917 5916 5915 5914 5913 5912 5911 5910 5909 5908 5907 5906 5906 5906 5905 5904 5904 5903 5902 5901 5900 5899 5898 5897 5896 5895 5894 5894
5909 5910 5913 5914 5915 5916 5917 5918 5918 5919 5919 5919 5919 5919 5919 5918 5917 5917 5916 5915 5914 5913 5912 5910 5910 5909 5907 5907 5907 5906 5906 5905 5905 5904 5903 5902 5901 5900 5899 5898 5897 5896 5895 5895
5906 5909 5910 5912 5913 5914 5916 5917 5918 5918 5918 5919 5919 5919 5918 5918 5917 5917 5916 5916 5914 5913 5912 5910 5910 5909 5909 5908 5907 5907 5906 5906 5905 5905 5903 5902 5901 5900 5899 5899 5898 5897 5896 5895
5903 5905 5907 5909 5911 5913 5914 5915 5917 5917 5918 5918 5918 5917 5918 5917 5917 5916 5916 5915 5914 5913 5912 5911 5910 5909 5909 5908 5907 5907 5906 5906 5905 5905 5904 5903 5902 5901 5900 5899 5898 5897 5896 5895
5900 5902 5904 5906 5909 5910 5912 5913 5915 5915 5916 5916 5916 5915 5917 5916 5916 5915 5915 5914 5913 5913 5913 5912 5910 5909 5909 5908 5907 5907 5906 5906 5905 5904 5904 5903 5902 5901 5900 5899 5897 5897 5896 5894
5897 5899 5901 5904 5906 5908 5909 5911 5912 5912 5913 5913 5914 5914 5914 5914 5914 5914 5913 5912 5912 5912 5912 5911 5910 5909 5908 5907 5907 5906 5906 5905 5904 5904 5903 5902 5901 5900 5899 5898 5897 5896 5895 5894
5893 5895 5898 5900 5902 5905 5906 5908 5909 5909 5910 5910 5911 5911 5912 5912 5912 5912 5911 5910 5910 5911 5910 5910 5909 5908 5907 5907 5906 5906 5905 5904 5903 5903 5902 5901 5901 5900 5898 5897 5896 5895 5894 5892
5889 5892 5894 5896 5899 5901 5903 5904 5906 5907 5907 5908 5908 5908 5910 5909 5909 5909 5909 5908 5908 5909 5908 5908 5908 5907 5906 5905 5905 5905 5904 5903 5902 5901 5901 5900 5899 5898 5897 5896 5895 5893 5892 5891
5884 5888 5891 5893 5895 5898 5899 5901 5903 5904 5904 5904 5905 5905 5906 5905 5906 5906 5906 5906 5905 5906 5906 5906 5906 5905 5904 5903 5903 5903 5902 5901 5901 5900 5899 5898 5898 5897 5895 5894 5893 5891 5890 5889
5879 5883 5887 5889 5891 5893 5896 5897 5899 5899 5899 5900 5901 5901 5902 5902 5903 5902 5902 5902 5903 5903 5904 5904 5904 5903 5902 5902 5901 5900 5900 5899 5899 5898 5897 5896 5895 5894 5893 5892 5890 5889 5888 5886
5875 5878 5882 5885 5886 5888 5891 5892 5893 5894 5895 5896 5896 5899 5899 5899 5899 5899 5899 5899 5900 5901 5901 5901 5901 5901 5900 5899 5898 5898 5897 5897 5896 5895 5894 5893 5892 5891 5890 5889 5887 5886 5885 5883
5870 5873 5876 5880 5882 5884 5886 5888 5889 5890 5891 5891 5892 5896 5894 5894 5895 5895 5896 5896 5897 5898 5898 5897 5897 5897 5897 5896 5895 5894 5893 5893 5893 5892 5891 5890 5889 5888 5886 5885 5884 5883 5881 5880
5864 5867 5870 5874 5878 5879 5880 5882 5883 5885 5886 5886 5887 5891 5890 5890 5890 5891 5892 5892 5893 5894 5894 5894 5893 5893 5893 5892 5892 5891 5890 5890 5890 5889 5888 5886 5885 5883 5882 5881 5880 5879 5877 5876
5858 5861 5865 5868 5871 5872 5875 5877 5878 5879 5880 5881 5882 5884 5885 5886 5886 5886 5887 5888 5888 5889 5889 5889 5889 5889 5889 5889 5888 5888 5887 5886 5885 5885 5884 5883 5881 5879 5878 5877 5875 5874 5873 5871
5852 5855 5858 5862 5864 5866 5868 5870 5872 5873 5874 5876 5877 5878 5880 5881 5882 5882 5882 5883 5883 5883 5883 5884 5884 5885 5885 5884 5884 5883 5883 5882 5881 5881 5880 5879 5878 5875 5874 5872 5871 5869 5868 5867
5846 5849 5852 5855 5858 5860 5862 5864 5866 5867 5868 5869 5871 5873 5874 5875 5876 5877 5877 5877 5877 5878 5878 5879 5879 5879 5879 5880 5880 5879 5879 5878 5877 5876 5876 5875 5873 5871 5869 5868 5866 5865 5863 5862
5839 5842 5845 5848 5851 5853 5855 5858 5859 5861 5862 5863 5865 5868 5869 5870 5870 5871 5872 5872 5872 5872 5873 5873 5873 5873 5873 5874 5875 5875 5874 5874 5873 5872 5871 5870 5869 5867 5865 5863 5862 5860 5858 5857
5832 5834 5837 5840 5844 5846 5851 5851 5853 5854 5856 5857 5859 5861 5863 5864 5865 5865 5865 5866 5866 5867 5867 5867 5867 5867 5867 5867 5868 5869 5868 5868 5867 5867 5866 5865 5864 5862 5860 5858 5856 5855 5854 5851
5824 5827 5829 5832 5835 5838 5842 5844 5846 5848 5850 5851 5853 5855 5857 5857 5858 5858 5859 5860 5860 5860 5861 5861 5861 5860 5861 5861 5861 5862 5862 5862 5862 5862 5861 5860 5858 5856 5855 5853 5851 5849 5848 5846
5816 5819 5822 5824 5826 5829 5835 5837 5839 5842 5843 5845 5846 5848 5850 5850 5852 5853 5853 5853 5853 5853 5854 5854 5854 5854 5854 5855 5855 5856 5856 5856 5855 5855 5854 5853 5852 5850 5849 5847 5845 5843 5841 5839
5808 5810 5813 5816 5818 5821 5826 5829 5832 5835 5836 5838 5840 5841 5843 5843 5845 5845 5845 5845 5845 5846 5846 5847 5847 5847 5847 5848 5849 5849 5849 5849 5848 5848 5847 5846 5845 5843 5842 5840 5838 5836 5834 5832
5799 5802 5804 5807 5810 5815 5818 5820 5824 5826 5828 5830 5831 5833 5835 5835 5835 5836 5837 5837 5838 5838 5839 5839 5839 5840 5840 5841 5841 5841 5841 5841 5840 5840 5839 5838 5837 5836 5834 5833 5831 5829 5827 5825
5791 5795 5797 5800 5803 5806 5809 5812 5815 5817 5819 5821 5823 5825 5826 5827 5828 5828 5829 5828 5829 5830 5831 5831 5831 5832 5833 5833 5833 5833 5833 5833 5833 5832 5832 5831 5830 5828 5826 5825 5824 5821 5819 5817
5783 5786 5788 5791 5794 5798 5801 5804 5806 5808 5809 5812 5815 5816 5817 5819 5819 5820 5820 5820 5820 5822 5822 5823 5823 5824 5825 5825 5825 5825 5825 5825 5825 5824 5824 5823 5822 5820 5818 5816 5815 5813 5811 5809
5775 5778 5780 5783 5787 5790 5793 5795 5798 5800 5801 5803 5805 5807 5808 5809 5811 5811 5812 5812 5813 5813 5814 5814 5814 5815 5816 5816 5816 5816 5817 5817 5816 5816 5815 5815 5814 5812 5811 5809 5807 5805 5802 5800
5767 5770 5773 5776 5780 5782 5785 5788 5790 5792 5793 5795 5797 5799 5800 5800 5801 5802 5803 5803 5804 5804 5804 5805 5805 5806 5806 5806 5807 5807 5807 5807 5807 5807 5807 5806 5805 5804 5802 5800 5798 5796 5794 5792